Location: Białogóra
(54.8155°N, 17.9567°E)
Time: 05:11:11
(UTC+02:00)

ISS - Visible Passes

Search period start: 26 September 2018 00:00
Search period end: 06 October 2018 00:00
Orbit: 403 x 408 km, 51.6° (Epoch: 26 September)

Date Brightness Start Highest point End Pass type
(mag) Time Alt. Az. Time Alt. Az. Time Alt. Az.
26 Sep -2.9 20:12:57 10° SW 20:15:54 31° SSE 20:16:23 29° SE visible
26 Sep -0.8 21:48:52 10° WSW 21:49:04 11° WSW 21:49:04 11° WSW visible
27 Sep -2.4 19:21:28 10° SSW 19:24:10 23° SSE 19:26:35 12° ESE visible
27 Sep -2.6 20:57:04 10° WSW 20:59:15 34° SW 20:59:15 34° SW visible
28 Sep -3.2 20:05:17 10° WSW 20:08:25 41° SSE 20:09:23 31° SE visible
28 Sep -1.0 21:41:27 10° W 21:42:03 14° WSW 21:42:03 14° WSW visible
29 Sep -2.8 19:13:34 10° SW 19:16:36 33° SSE 19:19:26 11° E visible
29 Sep -2.9 20:49:35 10° WSW 20:52:07 40° SW 20:52:07 40° SW visible
30 Sep -3.4 19:57:43 10° WSW 20:00:55 48° S 20:02:08 30° ESE visible
30 Sep -1.0 21:34:02 10° W 21:34:48 15° WSW 21:34:48 15° WSW visible
01 Oct -3.1 19:05:53 10° WSW 19:09:02 43° S 19:12:07 11° E visible
01 Oct -2.9 20:42:06 10° W 20:44:47 40° SW 20:44:47 40° SW visible
02 Oct -3.3 19:50:11 10° W 19:53:22 48° S 19:54:46 28° SE visible
02 Oct -1.0 21:26:40 10° W 21:27:26 15° WSW 21:27:26 15° WSW visible
03 Oct -3.2 18:58:16 10° WSW 19:01:28 48° S 19:04:41 10° ESE visible
03 Oct -2.6 20:34:37 10° W 20:37:24 33° SSW 20:37:24 33° SSW visible
04 Oct -3.0 19:42:38 10° W 19:45:47 41° SSW 19:47:23 23° SE visible
04 Oct -0.9 21:19:28 10° WSW 21:20:03 13° WSW 21:20:03 13° WSW visible
05 Oct -3.1 18:50:40 10° W 18:53:52 46° S 18:57:03 10° ESE visible
05 Oct -2.1 20:27:13 10° W 20:29:56 24° SSW 20:30:03 23° SSW visible
